Stations météo

réclame
Mon MeteoGroup
Asturias/Aviles, Espagne (8011): Température de l'air & dewpoint: 12.01.2019 12:00:00 - 18.01.2019 12:00:00 (CET)Asturias/Aviles, Espagne (8011): Vitesse du vent: 12.01.2019 12:00:00 - 18.01.2019 12:00:00 (CET)Asturias/Aviles, Espagne (8011): Direction du vent: 12.01.2019 12:00:00 - 18.01.2019 12:00:00 (CET)Asturias/Aviles, Espagne (8011): reduced air pressure: 12.01.2019 12:00:00 - 18.01.2019 12:00:00 (CET)Asturias/Aviles, Espagne (8011): visibility: 12.01.2019 12:00:00 - 18.01.2019 12:00:00 (CET)
Date & Time tt [°C] td [°C] ff [km/h] ff [knt] dd ppp [hPa] vv [km]
18.01.2019 12:00:00 8,1 3,1 16 9 SW 1019,3 -
18.01.2019 11:00:00 6,7 2,9 15 8 SSW 1019,8 -
18.01.2019 10:00:00 5,8 2,6 15 8 SSW 1019,5 25
18.01.2019 09:00:00 6,4 2,3 16 9 SSW 1019,8 -
18.01.2019 08:00:00 6,3 2,2 16 9 SSW 1020,0 -
18.01.2019 07:00:00 6,0 2,3 13 7 SW 1020,0 15
18.01.2019 06:00:00 6,0 2,5 13 7 SW 1020,5 -
18.01.2019 05:00:00 5,8 2,6 13 7 SW 1021,1 -
18.01.2019 04:00:00 6,1 2,9 13 7 SSW 1021,9 -
18.01.2019 03:00:00 6,2 3,0 15 8 SSW 1022,0 -
18.01.2019 02:00:00 5,9 3,2 15 8 SSW 1022,5 -
18.01.2019 01:00:00 6,1 3,5 11 6 SSW 1023,1 -
18.01.2019 00:00:00 6,1 3,8 11 6 SW 1023,7 -
17.01.2019 23:00:00 6,0 3,7 13 7 SSW 1023,4 -
17.01.2019 22:00:00 6,3 3,8 11 6 SW 1023,2 12
17.01.2019 21:00:00 6,3 4,3 9 5 SSW 1023,3 -
17.01.2019 20:00:00 6,8 4,8 9 5 WSW 1023,3 -
17.01.2019 19:00:00 7,5 5,3 11 6 WSW 1023,2 15
17.01.2019 18:00:00 8,2 5,8 9 5 WSW 1022,7 -
17.01.2019 17:00:00 9,7 5,7 15 8 W 1022,5 -
17.01.2019 16:00:00 8,9 5,4 11 6 WSW 1022,2 20
17.01.2019 15:00:00 8,6 5,5 18 10 W 1022,2 -
17.01.2019 14:00:00 10,0 6,2 8 4 W 1022,4 -
17.01.2019 13:00:00 10,6 6,5 13 7 SW 1022,7 20
17.01.2019 12:00:00 8,7 5,4 15 8 SW 1023,0 -
17.01.2019 11:00:00 8,0 5,6 13 7 SW 1023,3 -
17.01.2019 10:00:00 6,9 4,8 13 7 SSW 1022,5 18
17.01.2019 09:00:00 6,2 4,2 13 7 SW 1021,9 -
17.01.2019 08:00:00 6,8 4,6 11 6 WSW 1021,6 -
17.01.2019 07:00:00 6,9 5,0 11 6 SW 1021,2 7
17.01.2019 06:00:00 6,9 5,0 9 5 WSW 1020,8 -
17.01.2019 05:00:00 7,3 5,9 11 6 SW 1020,6 -
17.01.2019 04:00:00 7,7 6,3 13 7 WSW 1020,5 -
17.01.2019 03:00:00 9,2 5,5 11 6 WNW 1020,0 -
17.01.2019 02:00:00 8,7 7,3 8 4 W 1020,1 -
17.01.2019 01:00:00 8,8 7,3 9 5 W 1020,0 -
17.01.2019 00:00:00 9,3 7,5 13 7 W 1019,8 -
16.01.2019 23:00:00 9,2 8,3 11 6 W 1019,4 -
16.01.2019 22:00:00 9,2 8,7 16 9 WNW 1019,0 8
16.01.2019 21:00:00 9,5 8,7 16 9 WNW 1018,4 -
16.01.2019 20:00:00 10,7 9,1 16 9 WNW 1017,6 -
16.01.2019 19:00:00 11,4 6,8 15 8 W 1016,9 15
16.01.2019 18:00:00 11,2 8,1 16 9 WNW 1016,6 -
16.01.2019 17:00:00 11,3 8,9 18 10 WNW 1016,0 -
16.01.2019 16:00:00 11,3 9,4 18 10 WNW 1015,8 20
16.01.2019 15:00:00 12,8 9,1 15 8 WNW 1015,7 -
16.01.2019 14:00:00 12,2 6,6 5 3 WSW 1015,9 -
16.01.2019 13:00:00 10,9 5,9 9 5 WSW 1016,5 15
16.01.2019 12:00:00 9,8 5,2 8 4 SW 1017,0 -
16.01.2019 11:00:00 8,1 3,9 13 7 SW 1017,1 -
16.01.2019 10:00:00 5,8 2,6 18 10 SSW 1016,9 12
16.01.2019 09:00:00 5,4 2,4 18 10 SSW 1016,7 -
16.01.2019 08:00:00 4,5 1,9 18 10 SSW 1017,0 -
16.01.2019 07:00:00 4,5 3,0 13 7 SSW 1016,7 20
16.01.2019 06:00:00 5,4 3,3 11 6 SSW 1016,9 -
16.01.2019 05:00:00 4,1 2,8 11 6 WSW 1017,2 -
16.01.2019 04:00:00 4,1 2,4 8 4 SSW 1017,4 -
16.01.2019 03:00:00 4,9 3,4 9 5 SSW 1017,5 -
16.01.2019 02:00:00 5,3 3,3 8 4 SW 1017,8 -
16.01.2019 01:00:00 5,4 3,6 9 5 SSW 1018,3 -
16.01.2019 00:00:00 5,9 4,1 8 4 SSW 1018,7 -
15.01.2019 23:00:00 6,4 4,4 8 4 SW 1018,9 -
15.01.2019 22:00:00 6,7 4,8 9 5 SW 1018,9 10
15.01.2019 21:00:00 6,6 5,5 8 4 S 1019,0 -
15.01.2019 20:00:00 5,4 4,4 13 7 SE 1019,3 -
15.01.2019 19:00:00 5,8 4,2 13 7 SE 1019,3 10
15.01.2019 18:00:00 9,3 6,4 13 7 ESE 1019,1 -
15.01.2019 17:00:00 11,2 6,8 11 6 ESE 1019,0 -
15.01.2019 16:00:00 11,9 6,5 13 7 E 1019,2 12
15.01.2019 15:00:00 12,3 6,8 11 6 E 1019,8 -
15.01.2019 14:00:00 12,2 6,8 11 6 ESE 1020,7 -
15.01.2019 13:00:00 11,4 6,3 16 9 ESE 1021,8 10
15.01.2019 12:00:00 11,2 6,4 13 7 SE 1022,7 -
15.01.2019 11:00:00 9,3 6,2 16 9 SE 1023,0 -
15.01.2019 10:00:00 5,4 3,5 11 6 SSW 1023,0 10
15.01.2019 09:00:00 5,6 4,1 13 7 SSW 1022,9 -
15.01.2019 08:00:00 5,9 4,5 9 5 S 1022,8 -
15.01.2019 07:00:00 3,4 2,5 9 5 S 1023,3 10
15.01.2019 06:00:00 5,5 3,9 9 5 S 1023,3 -
15.01.2019 05:00:00 8,0 6,1 13 7 SE 1023,9 -
15.01.2019 04:00:00 7,9 6,5 13 7 SE 1024,5 -
15.01.2019 03:00:00 7,9 6,5 13 7 SE 1024,8 -
15.01.2019 02:00:00 7,7 6,8 11 6 SE 1024,9 -
15.01.2019 01:00:00 4,9 4,3 11 6 SE 1025,6 -
15.01.2019 00:00:00 4,4 3,8 9 5 SE 1026,0 -
14.01.2019 23:00:00 4,6 4,0 11 6 SE 1026,2 -
14.01.2019 22:00:00 - - - - - - -
14.01.2019 21:00:00 6,3 5,6 9 5 SSE 1026,4 -
14.01.2019 20:00:00 6,4 5,2 9 5 SSE 1026,6 -
14.01.2019 19:00:00 7,5 5,0 8 4 SE 1026,7 25
14.01.2019 18:00:00 10,5 6,1 9 5 E 1026,5 -
14.01.2019 17:00:00 10,9 7,9 8 4 E 1026,5 -
14.01.2019 16:00:00 11,5 7,3 4 2 ENE 1026,6 30
14.01.2019 15:00:00 12,1 6,4 5 3 ESE 1026,8 -
14.01.2019 14:00:00 11,7 6,5 8 4 SSW 1027,4 -
14.01.2019 13:00:00 10,8 5,7 9 5 SSW 1028,3 30
14.01.2019 12:00:00 9,7 5,2 13 7 SSW 1029,2 -
14.01.2019 11:00:00 8,9 4,5 15 8 SW 1029,1 -
14.01.2019 10:00:00 8,4 4,4 18 10 SSW 1028,8 30
14.01.2019 09:00:00 8,2 4,0 13 7 SSW 1028,7 -
14.01.2019 08:00:00 8,1 3,9 13 7 SW 1028,5 -
14.01.2019 07:00:00 8,3 4,1 13 7 SSW 1028,4 20
14.01.2019 06:00:00 8,2 4,4 8 4 WSW 1028,6 -
14.01.2019 05:00:00 8,7 4,3 15 8 SSW 1028,8 -
14.01.2019 04:00:00 8,6 4,4 15 8 SSW 1029,2 -
14.01.2019 03:00:00 8,2 4,8 13 7 SW 1029,6 -
14.01.2019 02:00:00 8,3 5,0 9 5 SSW 1030,1 -
14.01.2019 01:00:00 8,7 5,3 11 6 SW 1030,4 -
14.01.2019 00:00:00 9,1 5,5 9 5 SSW 1030,8 -
13.01.2019 23:00:00 9,0 6,1 11 6 SW 1030,7 -
13.01.2019 22:00:00 8,9 5,8 5 3 SW 1030,7 30
13.01.2019 21:00:00 9,4 6,8 9 5 WSW 1030,7 -
13.01.2019 20:00:00 9,9 7,0 11 6 W 1030,9 -
13.01.2019 19:00:00 9,3 6,9 9 5 W 1030,8 35
13.01.2019 18:00:00 10,0 6,7 8 4 WNW 1030,6 -
13.01.2019 17:00:00 11,8 6,9 8 4 WNW 1030,5 -
13.01.2019 16:00:00 12,0 6,7 8 4 NW 1030,8 40
13.01.2019 15:00:00 13,0 5,6 11 6 SW 1031,0 -
13.01.2019 14:00:00 12,0 5,3 16 9 SW 1031,9 -
13.01.2019 13:00:00 10,7 4,6 16 9 SSW 1032,9 40
13.01.2019 12:00:00 8,3 3,1 18 10 SSW 1034,0 -
13.01.2019 11:00:00 7,2 2,6 16 9 SW 1034,2 -
13.01.2019 10:00:00 6,7 2,6 21 11 SSW 1033,9 30
13.01.2019 09:00:00 5,8 1,9 18 10 SW 1033,5 -
13.01.2019 08:00:00 6,1 2,1 22 12 SSW 1033,7 -
13.01.2019 07:00:00 6,0 2,3 18 10 SSW 1033,7 20
13.01.2019 06:00:00 6,1 2,7 16 9 SSW 1033,8 -
13.01.2019 05:00:00 6,1 3,3 18 10 SSW 1034,3 -
13.01.2019 04:00:00 6,6 3,6 11 6 SW 1034,4 -
13.01.2019 03:00:00 6,8 3,8 11 6 SW 1034,2 -
13.01.2019 02:00:00 7,2 4,2 15 8 SSW 1034,4 -
13.01.2019 01:00:00 7,6 4,5 13 7 SSW 1035,1 -
13.01.2019 00:00:00 7,5 4,8 11 6 SSW 1035,4 -
12.01.2019 23:00:00 7,7 5,2 11 6 SSW 1035,4 -
12.01.2019 22:00:00 8,2 5,5 4 2 SSE 1035,8 15
12.01.2019 21:00:00 8,0 5,5 5 3 ESE 1035,6 -
12.01.2019 20:00:00 7,9 5,7 4 2 SE 1035,3 -
12.01.2019 19:00:00 8,3 5,8 4 2 ESE 1035,0 15
12.01.2019 18:00:00 8,8 5,7 0 0 N 1034,8 -
12.01.2019 17:00:00 9,2 5,7 4 2 E 1034,7 -
12.01.2019 16:00:00 9,7 6,8 0 0 N 1034,5 15
12.01.2019 15:00:00 9,4 5,1 0 0 N 1034,6 -
12.01.2019 14:00:00 8,7 4,9 8 4 SSW 1034,8 -
12.01.2019 13:00:00 8,0 4,4 11 6 S 1035,3 20
12.01.2019 12:00:00 6,2 2,3 4 2 ENE 1036,1 -

tt = Température de l'air
td = dewpoint
ff = Vitesse du vent
dd = Direction du vent
ppp = reduced air pressure
vv = visibility

stations d'obs. à proximité